Location: Newark
(58.8333°N, 23.5833°E)
Time: 03:30:24
(UTC+00:00)

Tiros 1 despin weight - Pass Details

Date: 22 November 2019
Orbit: 594 x 642 km, 48.2° (Epoch: 14 December)

Event Time Altitude Azimuth Distance (km) Brightness Sun altitude
Rises 15:07:03 0° 259° (W) 2,839 ? -9.2°
Reaches altitude 10° 15:10:14 10° 235° (SW) 1,941 ? -9.6°
Maximum altitude 15:12:37 14° 203° (SSW) 1,677 ? -9.8°
Drops below altitude 10° 15:15:01 10° 170° (S) 1,951 ? -10.1°
Sets 15:18:14 0° 146° (SE) 2,863 ? -10.5°
